#Datum;Uhrzeit;WR;Pac;DaySum;Status;WR;Pac;DaySum;Status;Pdc1;Udc;Temp;WR;Pac;DaySum;Status;Pdc1;Udc;Temp;WR;Pac;DaySum;Status;Pdc1;Udc;Temp;WR;Pac;DaySum;Status;Pdc1;Pdc2;Udc1;Udc2;Temp;WR;Pac;DaySum;Status;Pdc1;Pdc2;Udc1;Udc2;Temp;WR;Pac;DaySum;Status;Pdc1;Udc;Temp;WR;Pac;DaySum;Status;Pdc1;Udc;Temp;WR;Pac;DaySum;Status;Pdc1;Udc;Temp
19.11.21;23:55:00;1;838;10935;0;2;0;2864;0;0;0;0;3;0;1776;0;0;0;0;4;0;2445;0;0;0;0;5;0;6341;0;0;0;0;0;0;6;0;4706;0;0;0;0;0;0;7;0;3083;0;0;0;0;8;0;3103;0;0;0;0;9;0;1637;0;0;0;0
19.11.21;23:50:00;1;802;10865;0;2;0;2864;0;0;0;0;3;0;1776;0;0;0;0;4;0;2445;0;0;0;0;5;0;6341;0;0;0;0;0;0;6;0;4706;0;0;0;0;0;0;7;0;3083;0;0;0;0;8;0;3103;0;0;0;0;9;0;1637;0;0;0;0
19.11.21;23:45:00;1;811;10798;0;2;0;2864;0;0;0;0;3;0;1776;0;0;0;0;4;0;2445;0;0;0;0;5;0;6341;0;0;0;0;0;0;6;0;4706;0;0;0;0;0;0;7;0;3083;0;0;0;0;8;0;3103;0;0;0;0;9;0;1637;0;0;0;0
19.11.21;23:40:00;1;794;10732;0;2;0;2864;0;0;0;0;3;0;1776;0;0;0;0;4;0;2445;0;0;0;0;5;0;6341;0;0;0;0;0;0;6;0;4706;0;0;0;0;0;0;7;0;3083;0;0;0;0;8;0;3103;0;0;0;0;9;0;1637;0;0;0;0
19.11.21;23:35:00;1;800;10665;0;2;0;2864;0;0;0;0;3;0;1776;0;0;0;0;4;0;2445;0;0;0;0;5;0;6341;0;0;0;0;0;0;6;0;4706;0;0;0;0;0;0;7;0;3083;0;0;0;0;8;0;3103;0;0;0;0;9;0;1637;0;0;0;0
19.11.21;23:30:00;1;806;10599;0;2;0;2864;0;0;0;0;3;0;1776;0;0;0;0;4;0;2445;0;0;0;0;5;0;6341;0;0;0;0;0;0;6;0;4706;0;0;0;0;0;0;7;0;3083;0;0;0;0;8;0;3103;0;0;0;0;9;0;1637;0;0;0;0
19.11.21;23:25:00;1;1935;10525;0;2;0;2864;0;0;0;0;3;0;1776;0;0;0;0;4;0;2445;0;0;0;0;5;0;6341;0;0;0;0;0;0;6;0;4706;0;0;0;0;0;0;7;0;3083;0;0;0;0;8;0;3103;0;0;0;0;9;0;1637;0;0;0;0
19.11.21;23:20:00;1;444;10403;0;2;0;2864;0;0;0;0;3;0;1776;0;0;0;0;4;0;2445;0;0;0;0;5;0;6341;0;0;0;0;0;0;6;0;4706;0;0;0;0;0;0;7;0;3083;0;0;0;0;8;0;3103;0;0;0;0;9;0;1637;0;0;0;0
19.11.21;23:15:00;1;472;10366;0;2;0;2864;0;0;0;0;3;0;1776;0;0;0;0;4;0;2445;0;0;0;0;5;0;6341;0;0;0;0;0;0;6;0;4706;0;0;0;0;0;0;7;0;3083;0;0;0;0;8;0;3103;0;0;0;0;9;0;1637;0;0;0;0
19.11.21;23:10:00;1;550;10325;0;2;0;2864;0;0;0;0;3;0;1776;0;0;0;0;4;0;2445;0;0;0;0;5;0;6341;0;0;0;0;0;0;6;0;4706;0;0;0;0;0;0;7;0;3083;0;0;0;0;8;0;3103;0;0;0;0;9;0;1637;0;0;0;0
19.11.21;23:05:00;1;516;10279;0;2;0;2864;0;0;0;0;3;0;1776;0;0;0;0;4;0;2445;0;0;0;0;5;0;6341;0;0;0;0;0;0;6;0;4706;0;0;0;0;0;0;7;0;3083;0;0;0;0;8;0;3103;0;0;0;0;9;0;1637;0;0;0;0
19.11.21;23:00:00;1;462;10235;0;2;0;2864;0;0;0;0;3;0;1776;0;0;0;0;4;0;2445;0;0;0;0;5;0;6341;0;0;0;0;0;0;6;0;4706;0;0;0;0;0;0;7;0;3083;0;0;0;0;8;0;3103;0;0;0;0;9;0;1637;0;0;0;0
19.11.21;22:55:00;1;464;10196;0;2;0;2864;0;0;0;0;3;0;1776;0;0;0;0;4;0;2445;0;0;0;0;5;0;6341;2;0;0;0;0;0;6;0;4706;2;0;0;0;0;0;7;0;3083;0;0;0;0;8;0;3103;0;0;0;0;9;0;1637;0;0;0;0
19.11.21;22:50:00;1;498;10157;0;2;0;2864;0;0;0;0;3;0;1776;0;0;0;0;4;0;2445;0;0;0;0;5;0;6341;2;0;0;0;0;0;6;0;4706;2;0;0;0;0;0;7;0;3083;0;0;0;0;8;0;3103;0;0;0;0;9;0;1637;0;0;0;0
19.11.21;22:45:00;1;478;10117;0;2;0;2864;0;0;0;0;3;0;1776;0;0;0;0;4;0;2445;0;0;0;0;5;0;6341;2;0;0;0;0;0;6;0;4706;2;0;0;0;0;0;7;0;3083;0;0;0;0;8;0;3103;0;0;0;0;9;0;1637;0;0;0;0
19.11.21;22:40:00;1;409;10079;0;2;0;2864;0;0;0;0;3;0;1776;0;0;0;0;4;0;2445;0;0;0;0;5;0;6341;2;0;0;0;0;0;6;0;4706;2;0;0;0;0;0;7;0;3083;0;0;0;0;8;0;3103;0;0;0;0;9;0;1637;0;0;0;0
19.11.21;22:35:00;1;377;10044;0;2;0;2864;0;0;0;0;3;0;1776;0;0;0;0;4;0;2445;0;0;0;0;5;0;6341;2;0;0;0;0;0;6;0;4706;2;0;0;0;0;0;7;0;3083;0;0;0;0;8;0;3103;0;0;0;0;9;0;1637;0;0;0;0
19.11.21;22:30:00;1;385;10012;0;2;0;2864;0;0;0;0;3;0;1776;0;0;0;0;4;0;2445;0;0;0;0;5;0;6341;2;0;0;0;0;0;6;0;4706;2;0;0;0;0;0;7;0;3083;0;0;0;0;8;0;3103;0;0;0;0;9;0;1637;0;0;0;0
19.11.21;22:25:00;1;383;9980;0;2;0;2864;0;0;0;0;3;0;1776;0;0;0;0;4;0;2445;0;0;0;0;5;0;6341;2;0;0;0;0;0;6;0;4706;2;0;0;0;0;0;7;0;3083;0;0;0;0;8;0;3103;0;0;0;0;9;0;1637;0;0;0;0
19.11.21;22:20:00;1;414;9946;0;2;0;2864;0;0;0;0;3;0;1776;0;0;0;0;4;0;2445;0;0;0;0;5;0;6341;2;0;0;0;0;0;6;0;4706;2;0;0;0;0;0;7;0;3083;0;0;0;0;8;0;3103;0;0;0;0;9;0;1637;0;0;0;0
19.11.21;22:15:00;1;437;9913;0;2;0;2864;0;0;0;0;3;0;1776;0;0;0;0;4;0;2445;0;0;0;0;5;0;6341;2;0;0;0;0;0;6;0;4706;2;0;0;0;0;0;7;0;3083;0;0;0;0;8;0;3103;0;0;0;0;9;0;1637;0;0;0;0
19.11.21;22:10:00;1;442;9877;0;2;0;2864;0;0;0;0;3;0;1776;0;0;0;0;4;0;2445;0;0;0;0;5;0;6341;2;0;0;0;0;0;6;0;4706;2;0;0;0;0;0;7;0;3083;0;0;0;0;8;0;3103;0;0;0;0;9;0;1637;0;0;0;0
19.11.21;22:05:00;1;452;9840;0;2;0;2864;0;0;0;0;3;0;1776;0;0;0;0;4;0;2445;0;0;0;0;5;0;6341;2;0;0;0;0;0;6;0;4706;2;0;0;0;0;0;7;0;3083;0;0;0;0;8;0;3103;0;0;0;0;9;0;1637;0;0;0;0
19.11.21;22:00:00;1;468;9801;0;2;0;2864;0;0;0;0;3;0;1776;0;0;0;0;4;0;2445;0;0;0;0;5;0;6341;2;0;0;0;0;0;6;0;4706;2;0;0;0;0;0;7;0;3083;0;0;0;0;8;0;3103;0;0;0;0;9;0;1637;0;0;0;0
19.11.21;21:55:00;1;541;9761;0;2;0;2864;0;0;0;0;3;0;1776;0;0;0;0;4;0;2445;0;0;0;0;5;0;6341;2;0;0;0;0;0;6;0;4706;2;0;0;0;0;0;7;0;3083;0;0;0;0;8;0;3103;0;0;0;0;9;0;1637;0;0;0;0
19.11.21;21:50:00;1;529;9716;0;2;0;2864;0;0;0;0;3;0;1776;0;0;0;0;4;0;2445;0;0;0;0;5;0;6341;2;0;0;0;0;0;6;0;4706;2;0;0;0;0;0;7;0;3083;0;0;0;0;8;0;3103;0;0;0;0;9;0;1637;0;0;0;0
19.11.21;21:45:00;1;437;9673;0;2;0;2864;0;0;0;0;3;0;1776;0;0;0;0;4;0;2445;0;0;0;0;5;0;6341;2;0;0;0;0;0;6;0;4706;2;0;0;0;0;0;7;0;3083;0;0;0;0;8;0;3103;0;0;0;0;9;0;1637;0;0;0;0
19.11.21;21:40:00;1;450;9637;0;2;0;2864;0;0;0;0;3;0;1776;0;0;0;0;4;0;2445;0;0;0;0;5;0;6341;2;0;0;0;0;0;6;0;4706;2;0;0;0;0;0;7;0;3083;0;0;0;0;8;0;3103;0;0;0;0;9;0;1637;0;0;0;0
19.11.21;21:35:00;1;476;9598;0;2;0;2864;0;0;0;0;3;0;1776;0;0;0;0;4;0;2445;0;0;0;0;5;0;6341;2;0;0;0;0;0;6;0;4706;2;0;0;0;0;0;7;0;3083;0;0;0;0;8;0;3103;0;0;0;0;9;0;1637;0;0;0;0
19.11.21;21:30:00;1;486;9559;0;2;0;2864;0;0;0;0;3;0;1776;0;0;0;0;4;0;2445;0;0;0;0;5;0;6341;2;0;0;0;0;0;6;0;4706;2;0;0;0;0;0;7;0;3083;0;0;0;0;8;0;3103;0;0;0;0;9;0;1637;0;0;0;0
19.11.21;21:25:00;1;426;9518;0;2;0;2864;0;0;0;0;3;0;1776;0;0;0;0;4;0;2445;0;0;0;0;5;0;6341;2;0;0;0;0;0;6;0;4706;2;0;0;0;0;0;7;0;3083;0;0;0;0;8;0;3103;0;0;0;0;9;0;1637;0;0;0;0
19.11.21;21:20:00;1;409;9483;0;2;0;2864;0;0;0;0;3;0;1776;0;0;0;0;4;0;2445;0;0;0;0;5;0;6341;2;0;0;0;0;0;6;0;4706;2;0;0;0;0;0;7;0;3083;0;0;0;0;8;0;3103;0;0;0;0;9;0;1637;0;0;0;0
19.11.21;21:15:00;1;406;9448;0;2;0;2864;0;0;0;0;3;0;1776;0;0;0;0;4;0;2445;0;0;0;0;5;0;6341;2;0;0;0;0;0;6;0;4706;2;0;0;0;0;0;7;0;3083;0;0;0;0;8;0;3103;0;0;0;0;9;0;1637;0;0;0;0
19.11.21;21:10:00;1;393;9414;0;2;0;2864;0;0;0;0;3;0;1776;0;0;0;0;4;0;2445;0;0;0;0;5;0;6341;2;0;0;0;0;0;6;0;4706;2;0;0;0;0;0;7;0;3083;0;0;0;0;8;0;3103;0;0;0;0;9;0;1637;0;0;0;0
19.11.21;21:05:00;1;377;9381;0;2;0;2864;0;0;0;0;3;0;1776;0;0;0;0;4;0;2445;0;0;0;0;5;0;6341;2;0;0;0;0;0;6;0;4706;2;0;0;0;0;0;7;0;3083;0;0;0;0;8;0;3103;0;0;0;0;9;0;1637;0;0;0;0
19.11.21;21:00:00;1;364;9351;0;2;0;2864;0;0;0;0;3;0;1776;0;0;0;0;4;0;2445;0;0;0;0;5;0;6341;2;0;0;0;0;0;6;0;4706;2;0;0;0;0;0;7;0;3083;0;0;0;0;8;0;3103;0;0;0;0;9;0;1637;0;0;0;0
19.11.21;20:55:00;1;385;9321;0;2;0;2864;0;0;0;0;3;0;1776;0;0;0;0;4;0;2445;0;0;0;0;5;0;6341;2;0;0;0;0;0;6;0;4706;2;0;0;0;0;0;7;0;3083;0;0;0;0;8;0;3103;0;0;0;0;9;0;1637;0;0;0;0
19.11.21;20:50:00;1;386;9289;0;2;0;2864;0;0;0;0;3;0;1776;0;0;0;0;4;0;2445;0;0;0;0;5;0;6341;2;0;0;0;0;0;6;0;4706;2;0;0;0;0;0;7;0;3083;0;0;0;0;8;0;3103;0;0;0;0;9;0;1637;0;0;0;0
19.11.21;20:45:00;1;389;9256;0;2;0;2864;0;0;0;0;3;0;1776;0;0;0;0;4;0;2445;0;0;0;0;5;0;6341;2;0;0;0;0;0;6;0;4706;2;0;0;0;0;0;7;0;3083;0;0;0;0;8;0;3103;0;0;0;0;9;0;1637;0;0;0;0
19.11.21;20:40:00;1;358;9224;0;2;0;2864;0;0;0;0;3;0;1776;0;0;0;0;4;0;2445;0;0;0;0;5;0;6341;2;0;0;0;0;0;6;0;4706;2;0;0;0;0;0;7;0;3083;0;0;0;0;8;0;3103;0;0;0;0;9;0;1637;0;0;0;0
19.11.21;20:35:00;1;359;9193;0;2;0;2864;0;0;0;0;3;0;1776;0;0;0;0;4;0;2445;0;0;0;0;5;0;6341;2;0;0;0;0;0;6;0;4706;2;0;0;0;0;0;7;0;3083;0;0;0;0;8;0;3103;0;0;0;0;9;0;1637;0;0;0;0
19.11.21;20:30:00;1;360;9163;0;2;0;2864;0;0;0;0;3;0;1776;0;0;0;0;4;0;2445;0;0;0;0;5;0;6341;2;0;0;0;0;0;6;0;4706;2;0;0;0;0;0;7;0;3083;0;0;0;0;8;0;3103;0;0;0;0;9;0;1637;0;0;0;0
19.11.21;20:25:00;1;333;9133;0;2;0;2864;0;0;0;0;3;0;1776;0;0;0;0;4;0;2445;0;0;0;0;5;0;6341;2;0;0;0;0;0;6;0;4706;2;0;0;0;0;0;7;0;3083;0;0;0;0;8;0;3103;0;0;0;0;9;0;1637;0;0;0;0
19.11.21;20:20:00;1;361;9105;0;2;0;2864;0;0;0;0;3;0;1776;0;0;0;0;4;0;2445;0;0;0;0;5;0;6341;2;0;0;0;0;0;6;0;4706;2;0;0;0;0;0;7;0;3083;0;0;0;0;8;0;3103;0;0;0;0;9;0;1637;0;0;0;0
19.11.21;20:15:00;1;353;9075;0;2;0;2864;0;0;0;0;3;0;1776;0;0;0;0;4;0;2445;0;0;0;0;5;0;6341;2;0;0;0;0;0;6;0;4706;2;0;0;0;0;0;7;0;3083;0;0;0;0;8;0;3103;0;0;0;0;9;0;1637;0;0;0;0
19.11.21;20:10:00;1;344;9045;0;2;0;2864;0;0;0;0;3;0;1776;0;0;0;0;4;0;2445;0;0;0;0;5;0;6341;2;0;0;0;0;0;6;0;4706;2;0;0;0;0;0;7;0;3083;0;0;0;0;8;0;3103;0;0;0;0;9;0;1637;0;0;0;0
19.11.21;20:05:00;1;406;9016;0;2;0;2864;0;0;0;0;3;0;1776;0;0;0;0;4;0;2445;0;0;0;0;5;0;6341;2;0;0;0;0;0;6;0;4706;2;0;0;0;0;0;7;0;3083;0;0;0;0;8;0;3103;0;0;0;0;9;0;1637;0;0;0;0
19.11.21;20:00:00;1;409;8982;0;2;0;2864;0;0;0;0;3;0;1776;0;0;0;0;4;0;2445;0;0;0;0;5;0;6341;2;0;0;0;0;0;6;0;4706;2;0;0;0;0;0;7;0;3083;0;0;0;0;8;0;3103;0;0;0;0;9;0;1637;0;0;0;0
19.11.21;19:55:00;1;416;8947;0;2;0;2864;0;0;0;0;3;0;1776;0;0;0;0;4;0;2445;0;0;0;0;5;0;6341;2;0;0;0;0;0;6;0;4706;2;0;0;0;0;0;7;0;3083;0;0;0;0;8;0;3103;0;0;0;0;9;0;1637;0;0;0;0
19.11.21;19:50:00;1;358;8913;0;2;0;2864;0;0;0;0;3;0;1776;0;0;0;0;4;0;2445;0;0;0;0;5;0;6341;2;0;0;0;0;0;6;0;4706;2;0;0;0;0;0;7;0;3083;0;0;0;0;8;0;3103;0;0;0;0;9;0;1637;0;0;0;0
19.11.21;19:45:00;1;367;8883;0;2;0;2864;0;0;0;0;3;0;1776;0;0;0;0;4;0;2445;0;0;0;0;5;0;6341;2;0;0;0;0;0;6;0;4706;2;0;0;0;0;0;7;0;3083;0;0;0;0;8;0;3103;0;0;0;0;9;0;1637;0;0;0;0
19.11.21;19:40:00;1;391;8853;0;2;0;2864;0;0;0;0;3;0;1776;0;0;0;0;4;0;2445;0;0;0;0;5;0;6341;2;0;0;0;0;0;6;0;4706;2;0;0;0;0;0;7;0;3083;0;0;0;0;8;0;3103;0;0;0;0;9;0;1637;0;0;0;0
19.11.21;19:35:00;1;421;8820;0;2;0;2864;0;0;0;0;3;0;1776;0;0;0;0;4;0;2445;0;0;0;0;5;0;6341;2;0;0;0;0;0;6;0;4706;2;0;0;0;0;0;7;0;3083;0;0;0;0;8;0;3103;0;0;0;0;9;0;1637;0;0;0;0
19.11.21;19:30:00;1;356;8784;0;2;0;2864;0;0;0;0;3;0;1776;0;0;0;0;4;0;2445;0;0;0;0;5;0;6341;2;0;0;0;0;0;6;0;4706;2;0;0;0;0;0;7;0;3083;0;0;0;0;8;0;3103;0;0;0;0;9;0;1637;0;0;0;0
19.11.21;19:25:00;1;385;8755;0;2;0;2864;0;0;0;0;3;0;1776;0;0;0;0;4;0;2445;0;0;0;0;5;0;6341;2;0;0;0;0;0;6;0;4706;2;0;0;0;0;0;7;0;3083;0;0;0;0;8;0;3103;0;0;0;0;9;0;1637;0;0;0;0
19.11.21;19:20:00;1;412;8722;0;2;0;2864;0;0;0;0;3;0;1776;0;0;0;0;4;0;2445;0;0;0;0;5;0;6341;2;0;0;0;0;0;6;0;4706;2;0;0;0;0;0;7;0;3083;0;0;0;0;8;0;3103;0;0;0;0;9;0;1637;0;0;0;0
19.11.21;19:15:00;1;438;8688;0;2;0;2864;0;0;0;0;3;0;1776;0;0;0;0;4;0;2445;0;0;0;0;5;0;6341;2;0;0;0;0;0;6;0;4706;2;0;0;0;0;0;7;0;3083;0;0;0;0;8;0;3103;0;0;0;0;9;0;1637;0;0;0;0
19.11.21;19:10:00;1;997;8649;0;2;0;2864;0;0;0;0;3;0;1776;0;0;0;0;4;0;2445;0;0;0;0;5;0;6341;2;0;0;0;0;0;6;0;4706;2;0;0;0;0;0;7;0;3083;0;0;0;0;8;0;3103;0;0;0;0;9;0;1637;0;0;0;0
19.11.21;19:05:00;1;592;8566;0;2;0;2864;0;0;0;0;3;0;1776;0;0;0;0;4;0;2445;0;0;0;0;5;0;6341;2;0;0;0;0;0;6;0;4706;2;0;0;0;0;0;7;0;3083;0;0;0;0;8;0;3103;0;0;0;0;9;0;1637;0;0;0;0
19.11.21;19:00:00;1;363;8513;0;2;0;2864;0;0;0;0;3;0;1776;0;0;0;0;4;0;2445;0;0;0;0;5;0;6341;2;0;0;0;0;0;6;0;4706;2;0;0;0;0;0;7;0;3083;0;0;0;0;8;0;3103;0;0;0;0;9;0;1637;0;0;0;0
19.11.21;18:55:00;1;418;8483;0;2;0;2864;0;0;0;0;3;0;1776;0;0;0;0;4;0;2445;0;0;0;0;5;0;6341;2;0;0;0;0;0;6;0;4706;2;0;0;0;0;0;7;0;3083;0;0;0;0;8;0;3103;0;0;0;0;9;0;1637;0;0;0;0
19.11.21;18:50:00;1;436;8448;0;2;0;2864;0;0;0;0;3;0;1776;0;0;0;0;4;0;2445;0;0;0;0;5;0;6341;2;0;0;0;0;0;6;0;4706;2;0;0;0;0;0;7;0;3083;0;0;0;0;8;0;3103;0;0;0;0;9;0;1637;0;0;0;0
19.11.21;18:45:00;1;398;8412;0;2;0;2864;0;0;0;0;3;0;1776;0;0;0;0;4;0;2445;0;0;0;0;5;0;6341;2;0;0;0;0;0;6;0;4706;2;0;0;0;0;0;7;0;3083;0;0;0;0;8;0;3103;0;0;0;0;9;0;1637;0;0;0;0
19.11.21;18:40:00;1;375;8378;0;2;0;2864;0;0;0;0;3;0;1776;0;0;0;0;4;0;2445;0;0;0;0;5;0;6341;2;0;0;0;0;0;6;0;4706;2;0;0;0;0;0;7;0;3083;0;0;0;0;8;0;3103;0;0;0;0;9;0;1637;0;0;0;0
19.11.21;18:35:00;1;427;8347;0;2;0;2864;0;0;0;0;3;0;1776;0;0;0;0;4;0;2445;0;0;0;0;5;0;6341;2;0;0;0;0;0;6;0;4706;2;0;0;0;0;0;7;0;3083;0;0;0;0;8;0;3103;0;0;0;0;9;0;1637;0;0;0;0
19.11.21;18:30:00;1;400;8310;0;2;0;2864;0;0;0;0;3;0;1776;0;0;0;0;4;0;2445;0;0;0;0;5;0;6341;2;0;0;0;0;0;6;0;4706;2;0;0;0;0;0;7;0;3083;0;0;0;0;8;0;3103;0;0;0;0;9;0;1637;0;0;0;0
19.11.21;18:25:00;1;372;8277;0;2;0;2864;0;0;0;0;3;0;1776;0;0;0;0;4;0;2445;0;0;0;0;5;0;6341;2;0;0;0;0;0;6;0;4706;2;0;0;0;0;0;7;0;3083;0;0;0;0;8;0;3103;0;0;0;0;9;0;1637;0;0;0;0
19.11.21;18:20:00;1;387;8245;0;2;0;2864;0;0;0;0;3;0;1776;0;0;0;0;4;0;2445;0;0;0;0;5;0;6341;2;0;0;0;0;0;6;0;4706;2;0;0;0;0;0;7;0;3083;0;0;0;0;8;0;3103;0;0;0;0;9;0;1637;0;0;0;0
19.11.21;18:15:00;1;396;8213;0;2;0;2864;0;0;0;0;3;0;1776;0;0;0;0;4;0;2445;0;0;0;0;5;0;6341;2;0;0;0;0;0;6;0;4706;2;0;0;0;0;0;7;0;3083;0;0;0;0;8;0;3103;0;0;0;0;9;0;1637;0;0;0;0
19.11.21;18:10:00;1;365;8180;0;2;0;2864;0;0;0;0;3;0;1776;0;0;0;0;4;0;2445;0;0;0;0;5;0;6341;2;0;0;0;0;0;6;0;4706;2;0;0;0;0;0;7;0;3083;0;0;0;0;8;0;3103;0;0;0;0;9;0;1637;0;0;0;0
19.11.21;18:05:00;1;373;8150;0;2;0;2864;0;0;0;0;3;0;1776;0;0;0;0;4;0;2445;0;0;0;0;5;0;6341;2;0;0;0;0;0;6;0;4706;2;0;0;0;0;0;7;0;3083;0;0;0;0;8;0;3103;0;0;0;0;9;0;1637;0;0;0;0
19.11.21;18:00:00;1;389;8119;0;2;0;2864;0;0;0;0;3;0;1776;0;0;0;0;4;0;2445;0;0;0;0;5;0;6341;2;0;0;0;0;0;6;0;4706;2;0;0;0;0;0;7;0;3083;0;0;0;0;8;0;3103;0;0;0;0;9;0;1637;0;0;0;0
19.11.21;17:55:00;1;745;8086;0;2;0;2864;0;0;0;0;3;0;1776;0;0;0;0;4;0;2445;0;0;0;0;5;0;6341;2;0;0;0;0;0;6;0;4706;2;0;0;0;0;0;7;0;3083;0;0;0;0;8;0;3103;0;0;0;0;9;0;1637;0;0;0;0
19.11.21;17:50:00;1;340;8039;0;2;0;2864;0;0;0;0;3;0;1776;0;0;0;0;4;0;2445;0;0;0;0;5;0;6341;2;0;0;0;0;0;6;0;4706;2;0;0;0;0;0;7;0;3083;0;0;0;0;8;0;3103;0;0;0;0;9;0;1637;0;0;0;0
19.11.21;17:45:00;1;309;8011;0;2;0;2864;0;0;0;0;3;0;1776;0;0;0;0;4;0;2445;0;0;0;0;5;0;6341;2;0;0;0;0;0;6;0;4706;2;0;0;0;0;0;7;0;3083;0;0;0;0;8;0;3103;0;0;0;0;9;0;1637;0;0;0;0
19.11.21;17:40:00;1;302;7985;0;2;0;2864;0;0;0;0;3;0;1776;0;0;0;0;4;0;2445;0;0;0;0;5;0;6341;2;0;0;0;0;0;6;0;4706;2;0;0;0;0;0;7;0;3083;0;0;0;0;8;0;3103;0;0;0;0;9;0;1637;0;0;0;0
19.11.21;17:35:00;1;330;7960;0;2;0;2864;0;0;0;0;3;0;1776;0;0;0;0;4;0;2445;0;0;0;0;5;0;6341;2;0;0;0;0;0;6;0;4706;2;0;0;0;0;0;7;0;3083;0;0;0;0;8;0;3103;0;0;0;0;9;0;1637;0;0;0;0
19.11.21;17:30:00;1;354;7932;0;2;0;2864;0;0;0;0;3;0;1776;0;0;0;0;4;0;2445;0;0;0;0;5;0;6341;2;0;0;0;0;0;6;0;4706;2;0;0;0;0;0;7;0;3083;0;0;0;0;8;0;3103;0;0;0;0;9;0;1637;0;0;0;0
19.11.21;17:25:00;1;291;7904;0;2;0;2864;0;0;0;0;3;0;1776;0;0;0;0;4;0;2445;0;0;0;0;5;0;6341;2;0;0;0;0;0;6;0;4706;2;0;0;0;0;0;7;0;3083;0;0;0;0;8;0;3103;0;0;0;0;9;0;1637;0;0;0;0
19.11.21;17:20:00;1;271;7879;0;2;0;2864;0;0;0;0;3;0;1776;0;0;0;0;4;0;2445;0;0;0;0;5;0;6341;2;0;0;0;0;0;6;0;4706;2;0;0;0;0;0;7;0;3083;0;0;0;0;8;0;3103;0;0;0;0;9;0;1637;0;0;0;0
19.11.21;17:15:00;1;261;7857;0;2;0;2864;0;0;0;0;3;0;1776;0;0;0;0;4;0;2445;0;0;0;0;5;0;6341;2;0;0;0;0;0;6;0;4706;2;0;0;0;0;0;7;0;3083;0;0;0;0;8;0;3103;0;0;0;0;9;0;1637;0;0;0;0
19.11.21;17:10:00;1;308;7834;0;2;0;2864;0;0;0;0;3;0;1776;0;0;0;0;4;0;2445;0;0;0;0;5;0;6341;2;0;0;0;0;0;6;0;4706;2;0;0;0;0;0;7;0;3083;0;0;0;0;8;0;3103;0;0;0;0;9;0;1637;0;0;0;0
19.11.21;17:05:00;1;310;7808;0;2;0;2864;0;0;0;0;3;0;1776;0;0;0;0;4;0;2445;0;0;0;0;5;0;6341;2;0;0;0;0;0;6;0;4706;2;0;0;0;0;0;7;0;3083;0;0;0;0;8;0;3103;0;0;0;0;9;0;1637;0;0;0;0
19.11.21;17:00:00;1;283;7784;0;2;0;2864;0;0;0;0;3;0;1776;0;0;0;0;4;0;2445;0;0;0;0;5;0;6341;2;0;0;0;0;0;6;0;4706;2;0;0;0;0;0;7;0;3083;0;0;0;0;8;0;3103;0;0;0;0;9;0;1637;0;0;0;0
19.11.21;16:55:00;1;352;7760;0;2;0;2864;0;0;0;0;3;0;1776;0;0;0;0;4;0;2445;0;0;0;0;5;0;6341;2;0;0;0;0;0;6;0;4706;2;0;0;0;0;0;7;0;3083;0;0;0;0;8;0;3103;0;0;0;0;9;0;1637;0;0;0;0
19.11.21;16:50:00;1;350;7731;0;2;0;2864;0;0;0;0;3;0;1776;0;0;0;0;4;0;2445;0;0;0;0;5;0;6341;2;0;0;0;0;0;6;0;4706;2;0;0;0;0;0;7;0;3083;0;0;0;0;8;0;3103;0;0;0;0;9;0;1637;0;0;0;0
19.11.21;16:45:00;1;374;7702;0;2;0;2864;0;0;176;8;3;0;1776;6;0;288;15;4;0;2445;0;0;43;8;5;0;6341;2;0;0;0;0;0;6;0;4706;2;0;0;0;0;0;7;0;3083;0;0;0;0;8;0;3103;0;0;0;0;9;0;1637;0;0;0;0
19.11.21;16:40:00;1;346;7671;0;2;0;2864;6;0;307;12;3;0;1776;6;0;370;15;4;0;2445;1;0;103;13;5;0;6341;2;0;1;109;108;12;6;0;4706;2;0;0;0;0;0;7;0;3083;0;0;0;0;8;0;3103;0;0;0;0;9;0;1637;0;0;41;2
19.11.21;16:35:00;1;347;7642;0;2;0;2864;6;0;330;12;3;0;1776;6;0;411;15;4;0;2445;1;0;127;13;5;0;6341;2;0;0;313;313;26;6;0;4706;2;0;0;205;202;14;7;0;3083;0;0;212;13;8;0;3103;0;0;215;12;9;0;1637;6;0;282;12
19.11.21;16:30:00;1;345;7613;0;2;0;2864;6;0;350;12;3;0;1776;3;2;414;15;4;0;2445;1;0;156;13;5;0;6341;23;0;0;380;393;26;6;0;4706;23;0;0;490;485;24;7;0;3083;6;0;304;17;8;0;3103;6;0;309;16;9;0;1637;6;0;319;12
19.11.21;16:25:00;1;309;7584;0;2;0;2864;6;0;354;12;3;0;1776;6;2;429;16;4;0;2445;1;0;162;14;5;0;6341;26;0;0;390;437;26;6;0;4706;23;0;0;505;500;25;7;0;3083;6;0;322;17;8;0;3103;6;0;327;16;9;0;1637;6;0;340;12
19.11.21;16:20:00;1;255;7559;0;2;0;2864;6;0;371;13;3;2;1776;6;4;434;16;4;0;2445;1;0;192;14;5;10;6341;1;0;1;398;615;27;6;6;4706;23;0;0;538;532;25;7;0;3083;6;0;374;17;8;0;3103;6;0;379;17;9;0;1637;6;0;402;13
19.11.21;16:15:00;1;287;7538;0;2;0;2864;6;0;387;13;3;3;1776;6;7;444;16;4;0;2445;1;0;212;14;5;40;6341;1;1;11;387;612;27;6;3;4706;4;0;0;577;564;25;7;0;3083;6;1;408;18;8;0;3103;6;0;414;17;9;0;1637;4;0;446;13
19.11.21;16:10:00;1;286;7514;0;2;0;2864;6;0;409;13;3;0;1776;6;5;507;16;4;1;2445;3;1;199;15;5;113;6337;4;30;35;367;577;28;6;85;4705;4;6;25;528;508;26;7;2;3083;6;3;457;18;8;3;3103;6;8;437;17;9;0;1637;6;3;501;13
19.11.21;16:05:00;1;283;7490;0;2;56;2864;6;77;377;14;3;4;1776;6;11;528;16;4;28;2445;3;29;198;15;5;198;6327;4;79;77;367;577;28;6;150;4697;4;42;60;529;508;26;7;30;3083;6;49;338;14;8;33;3102;6;52;446;18;9;5;1637;6;9;531;13
19.11.21;16:00:00;1;307;7465;0;2;143;2859;4;173;377;14;3;82;1775;4;118;484;17;4;103;2442;3;108;218;15;5;335;6309;4;153;142;367;577;28;6;258;4684;4;97;113;529;508;26;7;122;3080;4;160;458;18;8;133;3099;4;166;445;18;9;52;1636;6;69;520;14
19.11.21;15:55:00;1;271;7440;0;2;141;2848;4;171;366;14;3;78;1769;4;119;494;17;4;105;2433;5;109;220;15;5;344;6281;4;162;148;367;577;28;6;266;4662;4;102;120;529;508;26;7;155;3070;4;202;453;18;8;172;3088;4;203;452;18;9;89;1632;4;119;497;14
19.11.21;15:50:00;1;252;7417;0;2;160;2836;4;189;373;14;3;93;1762;4;130;484;17;4;122;2425;5;127;224;15;5;370;6252;4;178;156;367;577;28;6;283;4640;4;115;128;529;508;26;7;163;3057;4;198;435;18;8;162;3074;4;196;457;18;9;84;1625;4;112;500;14
19.11.21;15:45:00;1;252;7396;0;2;179;2822;4;207;368;14;3;104;1754;4;144;492;17;4;136;2414;5;141;222;15;5;396;6221;4;191;172;367;577;28;6;306;4616;4;123;139;529;508;26;7;162;3044;4;200;434;18;8;169;3061;4;201;447;18;9;90;1618;4;113;480;14
19.11.21;15:40:00;1;314;7375;0;2;152;2808;4;181;366;14;3;86;1746;4;123;485;17;4;111;2403;5;116;214;15;5;359;6188;4;172;150;367;577;28;6;278;4591;4;108;129;529;508;26;7;139;3030;4;180;449;18;8;143;3047;4;179;454;18;9;43;1610;4;56;525;14
19.11.21;15:35:00;1;328;7349;0;2;148;2795;4;177;371;14;3;86;1738;4;121;467;17;4;107;2394;3;111;219;15;5;360;6158;4;170;152;367;577;28;6;275;4568;4;108;126;529;508;26;7;143;3018;4;174;426;18;8;140;3035;4;176;413;18;9;61;1606;6;83;508;14
19.11.21;15:30:00;1;338;7321;0;2;164;2782;4;193;374;14;3;92;1731;4;134;501;17;4;132;2385;5;137;223;15;5;387;6127;4;187;166;367;577;28;6;299;4544;4;121;139;529;508;26;7;159;3006;4;197;458;18;8;163;3023;4;199;424;18;9;88;1601;4;112;474;14
19.11.21;15:25:00;1;392;7292;0;2;147;2769;4;177;373;15;3;85;1723;4;121;484;17;4;105;2374;5;109;222;15;5;349;6095;4;169;150;371;577;28;6;266;4520;4;104;121;529;508;26;7;155;2993;4;187;420;18;8;151;3009;4;179;396;18;9;80;1594;4;109;475;14
19.11.21;15:20:00;1;614;7259;0;2;226;2756;4;258;374;15;3;134;1716;4;172;510;17;4;183;2365;5;191;226;15;5;505;6065;4;244;215;406;613;28;6;367;4497;4;156;173;529;508;26;7;230;2980;4;263;452;18;8;221;2996;4;262;458;18;9;120;1587;4;147;508;14
19.11.21;15:15:00;1;819;7209;0;2;205;2737;4;239;378;15;3;119;1705;4;159;516;17;4;156;2349;5;162;223;15;5;463;6023;4;217;195;406;610;28;6;339;4466;4;141;156;529;508;26;7;190;2961;4;228;450;18;8;192;2978;4;227;410;18;9;103;1577;4;132;488;14
19.11.21;15:10:00;1;801;7142;0;2;234;2720;4;265;374;15;3;142;1695;4;180;497;17;4;192;2336;5;200;228;15;5;519;5984;4;259;217;399;615;28;6;379;4438;4;157;179;529;519;26;7;227;2945;4;254;460;18;8;218;2962;4;255;448;18;9;115;1569;4;144;503;14
19.11.21;15:05:00;1;733;7077;0;2;269;2701;4;301;381;15;3;169;1684;4;204;489;17;4;224;2320;5;233;227;15;5;594;5941;4;287;255;401;625;28;6;437;4406;4;187;207;539;544;26;7;262;2925;4;298;463;18;8;265;2944;4;302;461;18;9;143;1559;4;167;508;15
19.11.21;15:00:00;1;779;7016;0;2;454;2678;4;494;387;15;3;287;1669;4;331;512;17;4;398;2302;5;414;234;15;5;984;5888;4;495;418;417;666;28;6;729;4367;4;325;341;580;565;26;7;456;2904;4;497;470;18;8;450;2922;4;498;468;18;9;239;1547;4;276;518;15
19.11.21;14:55:00;1;689;6955;0;2;335;2641;4;368;387;15;3;210;1646;4;253;505;17;4;290;2269;5;302;233;15;5;745;5806;4;372;315;409;650;28;6;553;4307;4;242;257;560;560;26;7;368;2866;4;398;474;18;8;361;2885;4;407;475;18;9;201;1527;4;230;504;15
19.11.21;14:50:00;1;685;6896;0;2;321;2612;4;354;386;15;3;201;1628;4;242;501;17;4;271;2244;5;282;234;15;5;701;5745;4;348;302;407;643;28;6;524;4261;4;225;249;557;541;26;7;334;2835;4;373;465;18;8;331;2854;4;377;472;18;9;183;1510;4;212;513;15
19.11.21;14:45:00;1;547;6839;0;2;239;2586;4;271;376;15;3;150;1611;4;186;491;17;4;200;2222;5;209;226;15;5;553;5688;4;262;233;401;653;28;6;395;4219;4;169;185;529;527;26;7;227;2807;4;265;460;18;8;228;2826;4;267;457;18;9;122;1495;4;151;508;15
19.11.21;14:40:00;1;360;6794;0;2;300;2565;4;332;380;15;3;183;1598;4;223;502;18;4;248;2205;5;259;231;16;5;661;5641;4;325;279;406;628;28;6;474;4185;4;205;225;536;556;26;7;283;2787;4;315;468;18;8;285;2807;4;322;465;18;9;150;1484;4;180;509;15
19.11.21;14:35:00;1;386;6763;0;2;387;2541;4;424;387;15;3;243;1583;4;287;508;18;4;340;2184;5;353;236;16;5;858;5585;4;424;364;405;667;28;6;627;4144;4;269;304;539;559;26;7;436;2763;4;478;474;18;8;432;2783;4;472;469;18;9;226;1472;4;262;496;15
19.11.21;14:30:00;1;405;6729;0;2;361;2508;4;398;391;16;3;228;1563;4;270;497;18;4;308;2156;5;321;233;16;5;798;5514;4;407;336;411;659;28;6;590;4092;4;256;280;552;556;26;7;391;2727;4;428;482;18;8;387;2747;4;440;451;18;9;215;1453;4;246;516;15
19.11.21;14:25:00;1;422;6695;0;2;402;2478;4;440;387;16;3;253;1544;4;296;504;18;4;346;2130;5;360;237;16;5;850;5448;4;429;365;409;660;28;6;626;4043;4;275;294;548;561;26;7;479;2695;4;498;468;18;8;467;2715;4;501;461;18;9;243;1435;4;280;516;15
19.11.21;14:20:00;1;469;6659;0;2;400;2445;4;439;395;16;3;250;1523;4;294;501;18;4;344;2102;5;358;232;16;5;848;5378;4;427;365;413;655;28;6;620;3992;4;270;295;557;538;26;7;415;2655;4;449;465;18;8;414;2676;4;448;472;18;9;215;1415;4;249;515;15
19.11.21;14:15:00;1;438;6622;0;2;424;2412;4;461;390;16;3;265;1502;4;311;505;18;4;368;2073;5;384;235;16;5;916;5307;4;458;388;416;659;28;6;677;3939;4;290;320;570;551;26;7;421;2621;4;455;460;18;8;421;2642;4;465;468;18;9;226;1397;4;257;503;15
19.11.21;14:10:00;1;404;6584;0;2;421;2377;4;459;387;16;3;262;1480;4;310;506;18;4;371;2043;5;387;233;16;5;942;5233;4;479;402;411;660;28;6;701;3884;4;303;332;577;551;26;7;443;2586;4;485;469;18;8;437;2607;4;482;470;18;9;236;1378;4;268;516;15
19.11.21;14:05:00;1;460;6550;0;2;488;2342;4;529;392;16;3;307;1459;4;354;508;18;4;428;2012;5;445;235;16;5;1070;5154;4;545;455;418;664;28;6;794;3825;4;354;370;579;542;26;7;551;2549;4;591;484;18;8;554;2571;4;593;466;18;9;294;1359;4;332;521;16
19.11.21;14:00:00;1;1686;6511;0;2;823;2301;4;872;402;16;3;523;1433;4;578;517;18;4;732;1976;5;762;240;16;5;1695;5061;4;890;739;425;682;28;6;1267;3756;4;597;599;600;565;26;7;829;2503;4;886;481;18;8;824;2524;4;881;469;18;9;440;1334;4;484;529;16
19.11.21;13:55:00;1;2215;6382;0;2;925;2233;4;979;404;16;3;598;1390;4;655;520;18;4;822;1916;5;857;241;16;5;1853;4918;4;979;813;424;695;28;6;1396;3649;4;665;664;594;574;26;7;1030;2434;4;1083;482;18;8;1030;2456;4;1082;466;18;9;551;1298;4;601;523;16
19.11.21;13:50:00;1;2291;6194;0;2;799;2156;4;852;404;16;3;517;1340;4;570;505;18;4;726;1848;5;756;241;15;5;1645;4764;4;865;715;419;702;28;6;1263;3532;4;592;593;600;564;26;7;1029;2348;4;1090;484;18;8;1040;2370;4;1097;478;18;9;556;1252;4;609;523;15